Home > Weather > Bergheim > Past weeks

Flag for Germany Past Weather in Bergheim, North Rhine-Westphalia, Germany — Yesterday and Last 2 Weeks

Now
63 °F

Partly sunny.


Feels Like: 63 °F
Forecast: 57 / 76 °F
Wind: 5 mph from East

Location: Noervenich

Current Time: May 27, 2016 at 10:43:28 AM

Latest Report: May 27, 2016 at 9:20 AM


Visibility: N/A

Pressure: 29.98 "Hg

Humidity: 77%

Dew Point: 55 °F

Location of BergheimLocation

Past Weather in Bergheim — Graph

°F

Bergheim Temperature Yesterday

Maximum temperature yesterday: 72 °F (at 4:20 PM)
Minimum temperature yesterday: 46 °F (at 5:20 AM)
Average temperature yesterday: 61 °F

High & Low Weather Summary for the Past Weeks

 TemperatureHumidityPressure
High75 °F (May 12, 5:20 PM)100% (May 26, 5:20 AM)30.15 "Hg (May 26, 5:20 AM)
Low41 °F (May 15, 2:20 AM)31% (May 13, 6:20 PM)29.47 "Hg (May 12, 4:20 PM)
Average57 °F69%29.92 "Hg
* Reported May 12 8:20 AM — May 27 8:20 AM, Bergheim, Weather by CustomWeather, © 2016

Note: Actual official high and low records may vary slightly from our data, if they occured in-between our weather recording intervals... More about our weather records

Advertising

Bergheim Weather History for the Previous 24 Hours

Scroll right to see more
 ConditionsComfort  
Time TempWeatherWind HumidityBarometerVisibility
8:20 AM
Fri, May 27
61 °FBroken clouds.2 mph83%29.98 "HgN/A
7:20 AM59 °FBroken clouds.3 mph88%29.98 "HgN/A
6:20 AM57 °FPartly cloudy.No wind94%29.98 "Hg5 mi
5:20 AM57 °FCool.1 mph94%29.95 "Hg3 mi
4:20 AM59 °FCool.2 mph82%29.98 "Hg4 mi
3:20 AM57 °FCool.No wind88%29.95 "HgN/A
2:20 AM57 °FCool.2 mph82%29.95 "HgN/A
1:20 AM59 °FCool.No wind82%29.95 "Hg6 mi
12:20 AM61 °FCool.No wind77%29.98 "Hg5 mi
11:20 PM
Thu, May 26
63 °FMild.2 mph73%29.98 "Hg6 mi
10:20 PM64 °FMild.1 mph60%29.98 "HgN/A
9:20 PM64 °FMild.2 mph60%29.95 "Hg6 mi
8:20 PM68 °FMild.2 mph53%29.95 "Hg6 mi
7:20 PM70 °FMild.5 mph50%29.95 "Hg5 mi
6:20 PM72 °FMild.5 mph47%29.98 "Hg4 mi
5:20 PM72 °FMild.3 mph47%29.98 "Hg4 mi
4:20 PM72 °FMild.1 mph47%29.98 "Hg4 mi
3:20 PM70 °FMild.3 mph50%30.01 "Hg4 mi
2:20 PM70 °FMild.3 mph50%30.01 "Hg4 mi
1:20 PM68 °FMild.2 mph56%30.01 "Hg4 mi
12:20 PM66 °FMild.3 mph56%30.01 "Hg4 mi
11:20 AM64 °FMild.3 mph60%30.01 "Hg5 mi
10:20 AM63 °FMild.2 mph68%30.04 "Hg4 mi
Weather by CustomWeather, © 2016

See weather overviewHow to use our weather pages